Zurück zum Katalog

COSMOS 2582

AktivMilitärPO
NORAD 62903·PAYLOAD·🇷🇺 Russia

Gestartet Feb 5, 2025 von Plesetsk Cosmodrome

Loading…

Nächste Überflüge (nächste 24 Stunden)

TLE

AktuellSource: Space-Track

Epoche: Sep 14, 2026, 18:28 UTC

1 62903U 25026B   26257.77005549  .00000904  00000-0  80035-4 0  9997
2 62903  81.9990 343.0771 0011345 116.7625 243.4757 14.95175990 87596

Verfolge COSMOS 2582 in Echtzeit mit AllMySat

Download on the App Store